Tracking 19792 objects as of 17-Jul-2019
HD Live streaming from Space Station
objects crossing your sky now

TITAN 34D TRANSTAGE DEB

Track TITAN 34D TRANSTAGE DEB now!


NORAD ID: 22669
Int'l Code: 1988-077E
Perigee: 446.2 km
Apogee: 38,312.9 km
Inclination: 26.9 °
Period: 685.4 minutes
Semi major axis: 25750 km
RCS: Unknown
Launch date: September 2, 1988
Source: United States (US)
Launch site: AIR FORCE EASTERN TEST RANGE (AFETR)

Note: This is SATELLITE DEBRIS
aabbcc
Your satellite tracking list
Your tracking list is empty




NASA's NSSDC Master Catalog

Two Line Element Set (TLE):
1 22669U 88077E   19193.69089176 -.00000273  00000-0 -90948-3 0  9991
2 22669  26.9455 315.0555 7352588  66.4837 351.5591  2.10098052   730
Source of the keplerian elements: AFSPC